CW8095 Weather Reports


Display with metric or nautical units.
time (UTC)temp
F
wind
direction
speed
MPH
gust
MPH
rain 1hr
in
rain 24hr
in
rain mn
in
humidity
%
barometer
mb
20260904122538 71 141 2.0 7.0 0.00 0.00 0.00 80 1014.1
20260904121529 71 139 3.0 7.0 0.00 0.00 0.00 79 1013.9
20260904120525 71 122 3.0 8.0 0.00 0.00 0.00 79 1013.8
20260904115521 71 156 2.0 4.0 0.00 0.00 0.00 79 1013.7
20260904114516 71 131 2.0 3.0 0.00 0.00 0.00 79 1013.7
20260904113546 71 132 3.0 6.0 0.00 0.00 0.00 79 1013.7
20260904112521 71 119 3.0 6.0 0.00 0.00 0.00 78 1013.7
20260904111517 71 126 2.0 7.0 0.00 0.00 0.00 78 1013.5
20260904110528 71 141 2.0 4.0 0.00 0.00 0.00 78 1013.6
20260904105524 71 114 2.0 3.0 0.00 0.00 0.00 78 1013.6
20260904104519 71 143 1.0 2.0 0.00 0.00 0.00 78 1013.5
20260904103535 71 138 1.0 2.0 0.00 0.00 0.00 78 1013.3
20260904102526 71 134 0.0 1.0 0.00 0.00 0.00 78 1013.2
20260904101522 71 134 0.0 2.0 0.00 0.00 0.00 78 1013.2
20260904100518 71 134 0.0 2.0 0.00 0.00 0.00 77 1013.2
20260904095529 72 138 3.0 6.0 0.00 0.00 0.00 77 1013.2
20260904094544 72 114 2.0 4.0 0.00 0.00 0.00 77 1013.2
20260904093520 72 134 2.0 7.0 0.00 0.00 0.00 77 1013.2
20260904092516 72 131 2.0 6.0 0.00 0.00 0.00 77 1013.1
20260904091527 72 145 1.0 6.0 0.00 0.00 0.00 77 1013.2
20260904090522 72 143 2.0 8.0 0.00 0.00 0.00 76 1013.1
20260904085518 72 152 2.0 7.0 0.00 0.00 0.00 76 1013.1
20260904084529 72 161 3.0 7.0 0.00 0.00 0.00 76 1013.2
20260904083525 72 169 5.0 7.0 0.00 0.00 0.00 76 1013.3
20260904082525 72 150 3.0 9.0 0.00 0.00 0.00 76 1013.0
20260904082028 72 150 3.0 10.0 0.00 0.00 0.00 76 1013.0
20260904081043 72 147 2.0 7.0 0.00 0.00 0.00 76 1013.0
20260904080019 72 135 2.0 7.0 0.00 0.00 0.00 76 1013.0
20260904075025 72 151 2.0 6.0 0.00 0.00 0.00 76 1013.0
20260904074046 72 162 3.0 6.0 0.00 0.00 0.00 75 1013.2
20260904073024 72 119 1.0 3.0 0.00 0.00 0.00 75 1013.2
20260904072020 72 130 1.0 4.0 0.00 0.00 0.00 75 1013.3
20260904071018 72 155 2.0 8.0 0.00 0.00 0.00 75 1013.5
20260904070030 72 135 2.0 7.0 0.00 0.00 0.00 75 1013.4
20260904065021 72 139 2.0 4.0 0.00 0.00 0.00 74 1013.5
20260904064043 72 134 2.0 3.0 0.00 0.00 0.00 74 1013.6
20260904063025 73 135 1.0 4.0 0.00 0.00 0.00 74 1013.4
20260904062037 73 142 2.0 6.0 0.00 0.00 0.00 74 1013.5
20260904061043 73 155 2.0 8.0 0.00 0.00 0.00 73 1013.4
20260904060057 73 157 2.0 9.0 0.00 0.00 0.00 73 1013.5
20260904055050 73 149 2.0 6.0 0.00 0.00 0.00 73 1013.5
20260904054023 73 151 3.0 7.0 0.00 0.00 0.00 72 1013.6
20260904053044 73 144 3.0 8.0 0.00 0.00 0.00 72 1013.5
20260904052112 73 147 3.0 9.0 0.00 0.00 0.00 71 1013.3
20260904051023 73 149 2.0 7.0 0.00 0.00 0.00 71 1013.2
20260904050029 73 141 3.0 8.0 0.00 0.00 0.00 70 1013.4
20260904045523 73 145 3.0 8.0 0.00 0.00 0.00 69 1013.6
20260904044550 73 151 3.0 10.0 0.00 0.00 0.00 69 1013.5
20260904043538 73 136 3.0 7.0 0.00 0.00 0.00 68 1013.5
20260904042516 74 127 4.0 7.0 0.00 0.00 0.00 67 1013.5
20260904041529 74 133 3.0 8.0 0.00 0.00 0.00 65 1013.6
20260904040523 74 122 3.0 8.0 0.00 0.00 0.00 63 1013.5
20260904035542 74 127 4.0 10.0 0.00 0.00 0.00 62 1013.6
20260904034537 74 129 4.0 9.0 0.00 0.00 0.00 61 1013.6
20260904033529 75 120 3.0 7.0 0.00 0.00 0.00 61 1013.5
20260904032528 75 129 4.0 9.0 0.00 0.00 0.00 62 1013.4
20260904031524 75 122 3.0 8.0 0.00 0.00 0.00 62 1013.4
20260904030516 75 128 3.0 7.0 0.00 0.00 0.00 62 1013.3
20260904025526 75 132 3.0 9.0 0.00 0.00 0.00 62 1013.2
20260904024521 76 130 2.0 6.0 0.00 0.00 0.00 62 1013.1
20260904023517 76 131 4.0 8.0 0.00 0.00 0.00 62 1012.9
20260904022526 76 119 4.0 7.0 0.00 0.00 0.00 62 1012.8
20260904021522 76 136 3.0 8.0 0.00 0.00 0.00 62 1012.7
20260904020517 77 136 4.0 8.0 0.00 0.00 0.00 62 1012.3
20260904015527 77 129 3.0 9.0 0.00 0.00 0.00 62 1012.2
20260904014523 77 136 4.0 9.0 0.00 0.00 0.00 63 1012.1
20260904013538 78 147 6.0 11.0 0.00 0.00 0.00 63 1012.0
20260904012548 78 144 5.0 9.0 0.00 0.00 0.00 62 1011.9
20260904011524 79 135 6.0 14.0 0.00 0.00 0.00 59 1011.9
20260904010519 80 135 4.0 9.0 0.00 0.00 0.00 55 1011.7
20260904005549 80 143 5.0 14.0 0.00 0.00 0.00 52 1011.8
20260904004524 81 128 5.0 11.0 0.00 0.00 0.00 50 1011.8
20260904003519 81 151 5.0 11.0 0.00 0.00 0.00 48 1011.6
20260904002529 81 132 3.0 8.0 0.00 0.00 0.00 49 1011.7
20260904001525 82 140 6.0 11.0 0.00 0.00 0.00 49 1011.5
20260904000540 82 140 5.0 10.0 0.00 0.00 0.00 50 1011.6
20260903235536 82 142 7.0 16.0 0.00 0.00 0.00 50 1011.5
20260903234526 83 123 5.0 13.0 0.00 0.00 0.00 49 1011.5
20260903233522 84 144 4.0 10.0 0.00 0.00 0.00 49 1011.4
20260903232517 84 134 6.0 10.0 0.00 0.00 0.00 48 1011.2
20260903231528 85 122 6.0 11.0 0.00 0.00 0.00 48 1011.3
20260903230524 85 138 5.0 11.0 0.00 0.00 0.00 48 1011.1
20260903225519 86 136 5.0 10.0 0.00 0.00 0.00 48 1011.1
20260903224530 86 150 4.0 9.0 0.00 0.00 0.00 48 1011.1
20260903223525 86 124 5.0 11.0 0.00 0.00 0.00 48 1011.3
20260903222520 87 136 5.0 9.0 0.00 0.00 0.00 47 1011.3
20260903221516 89 125 6.0 11.0 0.00 0.00 0.00 45 1011.3
20260903220527 89 134 6.0 13.0 0.00 0.00 0.00 45 1011.3
20260903215522 88 111 6.0 11.0 0.00 0.00 0.00 46 1011.2
20260903214517 90 148 4.0 8.0 0.00 0.00 0.00 44 1011.2
20260903213528 89 124 4.0 9.0 0.00 0.00 0.00 45 1011.2
20260903212523 88 144 5.0 9.0 0.00 0.00 0.00 46 1011.4
20260903211519 89 173 4.0 13.0 0.00 0.00 0.00 45 1011.4
20260903210529 89 170 4.0 10.0 0.00 0.00 0.00 46 1011.5
20260903205525 88 184 4.0 9.0 0.00 0.00 0.00 48 1011.8
20260903204521 87 170 4.0 15.0 0.00 0.00 0.00 49 1011.9
20260903203516 86 151 5.0 11.0 0.00 0.00 0.00 50 1012.0
20260903202527 86 149 4.0 10.0 0.00 0.00 0.00 50 1012.0
20260903201522 85 165 5.0 14.0 0.00 0.00 0.00 51 1012.1
20260903200517 85 166 5.0 15.0 0.00 0.00 0.00 51 1012.1
20260903195528 84 163 6.0 14.0 0.00 0.00 0.00 53 1012.1
20260903194523 84 151 7.0 11.0 0.00 0.00 0.00 53 1012.2
20260903193518 84 172 4.0 15.0 0.00 0.00 0.00 54 1012.4
20260903192529 84 171 4.0 14.0 0.00 0.00 0.00 54 1012.5
20260903191524 83 152 6.0 13.0 0.00 0.00 0.00 55 1012.7
20260903190520 83 151 7.0 15.0 0.00 0.00 0.00 56 1012.9
20260903185515 82 168 4.0 11.0 0.00 0.00 0.00 57 1013.1
20260903184526 82 158 5.0 13.0 0.00 0.00 0.00 58 1013.3
20260903183521 81 146 5.0 13.0 0.00 0.00 0.00 59 1013.5
20260903182517 81 127 6.0 13.0 0.00 0.00 0.00 59 1013.6
20260903181527 80 154 7.0 14.0 0.00 0.00 0.00 61 1013.6
20260903180522 80 161 7.0 17.0 0.00 0.00 0.00 61 1013.6
20260903175520 80 147 6.0 16.0 0.00 0.00 0.00 62 1013.7
20260903174528 80 149 5.0 14.0 0.00 0.00 0.00 62 1013.9
20260903173544 80 144 6.0 17.0 0.00 0.00 0.00 62 1014.0
20260903172519 80 157 6.0 16.0 0.00 0.00 0.00 61 1014.1
20260903171550 81 166 7.0 21.0 0.00 0.00 0.00 60 1014.0
20260903170525 81 159 6.0 14.0 0.00 0.00 0.00 61 1014.1
20260903165521 81 157 6.0 17.0 0.00 0.00 0.00 60 1014.0
20260903164517 81 150 6.0 16.0 0.00 0.00 0.00 61 1014.1
20260903163528 81 165 5.0 15.0 0.00 0.00 0.00 61 1014.1
20260903162523 80 157 5.0 13.0 0.00 0.00 0.00 63 1014.0
20260903161518 79 135 5.0 13.0 0.00 0.00 0.00 64 1014.0
20260903160528 79 155 4.0 11.0 0.00 0.00 0.00 65 1014.1
20260903155524 78 149 5.0 11.0 0.00 0.00 0.00 66 1014.1
20260903154520 77 160 4.0 9.0 0.00 0.00 0.00 67 1014.0
20260903153515 77 157 3.0 9.0 0.00 0.00 0.00 68 1014.0
20260903152526 76 167 3.0 13.0 0.00 0.00 0.00 69 1013.9
20260903151521 76 171 4.0 10.0 0.00 0.00 0.00 69 1013.8
20260903150516 76 166 3.0 9.0 0.00 0.00 0.00 69 1014.0
20260903145607 76 142 4.0 11.0 0.00 0.00 0.00 68 1014.1
20260903144522 76 157 3.0 11.0 0.00 0.00 0.00 68 1014.0
20260903143517 76 144 3.0 9.0 0.00 0.00 0.00 69 1013.9
20260903142528 76 137 2.0 7.0 0.00 0.00 0.00 69 1013.9
20260903141523 75 126 3.0 6.0 0.00 0.00 0.00 69 1013.7
20260903140519 76 122 5.0 10.0 0.00 0.00 0.00 69 1013.9
20260903135529 76 128 4.0 10.0 0.00 0.00 0.00 68 1014.0
20260903134525 75 118 4.0 7.0 0.00 0.00 0.00 69 1013.9
20260903133521 73 132 4.0 8.0 0.00 0.00 0.00 72 1013.7
20260903132516 72 126 3.0 6.0 0.00 0.00 0.00 73 1013.7
20260903131526 72 142 3.0 6.0 0.00 0.00 0.00 74 1013.6
20260903130542 71 121 3.0 6.0 0.00 0.00 0.00 74 1013.8
20260903125517 71 109 2.0 4.0 0.00 0.00 0.00 75 1013.7
20260903124528 71 112 3.0 6.0 0.00 0.00 0.00 75 1013.7
20260903123523 71 129 2.0 4.0 0.00 0.00 0.00 75 1013.4